Theta_e
315 320 319 319 320 320 320 320 320 320 319 319 318 318 319 320 321 322 323 325 325 326 326 325 326 325 321 310 310 320 329 330 325 321 316 312 311 310 303 305 307 303 305 305 304 303 303
313 314 319 319 319 319 319 319 320 320 319 318 317 317 317 319 321 321 323 325 325 324 325 325 325 324 314 303 321 323 325 325 321 319 316 314 311 314 310 307 305 308 307 303 302 303 303
312 313 310 318 318 318 317 318 319 319 318 318 317 317 318 319 320 321 321 323 324 324 324 325 325 319 311 308 321 322 323 322 322 320 315 315 315 312 312 307 310 308 303 304 300 302 304
310 311 312 313 318 317 317 317 318 318 318 317 316 316 317 318 319 319 321 321 322 322 322 324 324 317 306 319 321 320 319 320 323 322 319 318 316 311 308 308 305 300 300 295 301 302 305
309 310 311 311 317 317 317 317 317 317 317 316 315 316 316 317 317 318 320 320 320 320 321 322 316 311 303 319 313 319 318 316 319 320 320 316 314 307 305 301 296 298 293 294 298 304 302
308 308 309 309 308 316 316 316 316 316 316 315 315 315 316 317 317 317 319 319 319 319 318 317 314 305 307 305 314 317 320 319 313 313 310 308 305 301 302 298 290 293 294 297 295 301 301
308 308 308 309 306 315 315 315 315 316 316 314 314 315 316 316 316 318 316 311 304 302 307 302 303 302 306 312 317 313 317 314 312 308 300 304 298 294 297 301 301 299 297 296 298 303 300
306 307 308 308 307 315 314 314 315 316 316 314 314 315 316 316 316 317 314 304 304 307 297 305 305 306 309 311 304 309 316 306 304 298 302 299 293 299 302 303 301 300 298 296 299 299 299
307 307 308 308 308 313 314 314 314 315 315 314 313 314 315 315 316 313 309 307 313 313 297 299 304 303 305 308 303 304 310 306 302 298 299 295 297 301 300 299 298 299 296 296 296 297 298
306 306 308 308 308 313 313 313 313 313 313 313 313 314 315 315 308 308 305 312 314 314 289 292 297 301 305 306 299 310 311 306 301 297 299 298 301 299 298 296 301 295 302 301 297 295 290
305 307 307 307 312 312 312 312 313 312 312 313 313 314 314 313 304 303 307 312 314 306 275 292 297 308 305 300 301 302 310 306 299 297 299 295 296 296 295 296 301 296 303 300 298 294 292
306 307 308 310 311 311 311 312 312 312 312 312 313 313 312 309 307 307 311 312 307 284 273 287 296 296 297 298 299 303 303 307 306 300 300 298 301 300 299 300 302 300 296 295 293 292 286
308 308 308 310 310 311 311 312 312 312 312 312 312 312 309 308 301 310 311 303 283 277 288 284 290 295 294 292 294 297 297 296 292 289 290 295 296 299 302 297 299 298 294 285 284 284 285
309 309 309 310 310 310 311 311 311 311 312 311 311 310 308 308 310 309 305 289 276 281 283 290 290 293 289 293 292 293 293 292 296 295 291 287 285 296 300 299 293 295 294 284 279 279 281
307 307 308 309 310 310 311 311 310 310 311 310 310 305 304 307 310 308 294 279 277 283 288 288 288 284 288 292 293 292 290 287 296 297 289 289 288 298 299 301 299 294 291 295 285 277 280
306 307 308 308 309 309 309 310 310 310 310 309 301 299 299 307 308 301 287 282 283 289 291 290 283 286 285 289 288 290 290 293 291 299 300 293 285 293 295 299 299 296 297 287 286 277 276
306 306 307 308 309 309 309 309 310 310 309 307 298 291 300 307 305 293 281 283 287 292 291 287 286 286 287 287 290 288 290 294 294 297 300 296 291 286 293 291 290 292 291 291 291 287 281
305 306 307 307 308 307 308 309 310 310 307 302 295 285 300 303 287 287 282 286 290 289 291 288 287 286 286 288 288 290 290 293 299 298 294 297 292 284 288 290 294 295 293 292 286 283 285
305 306 306 306 306 307 308 309 309 307 305 297 287 288 300 298 280 281 287 286 288 286 287 287 285 288 289 286 285 291 292 298 300 299 296 296 288 281 282 288 291 291 293 295 293 288 284
305 305 306 307 305 307 307 308 307 306 306 297 291 282 288 292 290 284 282 283 284 290 288 289 287 289 286 284 287 287 292 297 300 300 299 298 290 287 283 286 290 288 291 293 293 284 285
303 303 305 307 306 304 306 306 306 306 306 298 293 284 284 280 282 286 285 284 283 282 289 290 286 286 284 281 284 285 294 295 298 300 298 295 286 289 289 292 291 290 291 291 291 292 287
302 305 305 305 305 305 305 305 305 305 303 296 288 285 286 284 286 285 286 282 283 284 287 285 285 287 287 284 286 284 293 294 293 293 294 295 285 287 284 291 291 289 292 292 293 293 292
302 303 306 305 305 305 305 305 305 303 303 292 292 294 288 286 283 283 283 285 285 288 289 290 288 287 286 287 291 292 296 298 296 294 292 291 285 284 282 288 288 284 289 291 292 294 294
302 303 306 305 306 306 306 305 305 303 300 296 293 293 288 281 284 283 285 286 287 288 286 290 291 290 293 298 299 298 297 295 297 296 296 291 286 285 281 284 277 286 295 296 293 294 296
300 299 303 304 305 305 305 305 304 302 300 297 296 294 289 282 284 285 286 286 287 290 288 289 292 294 299 296 285 284 284 287 287 294 294 295 289 282 280 280 283 285 287 292 291 291 297
299 298 298 302 303 304 304 303 302 301 300 298 296 297 292 284 283 286 285 288 285 286 285 286 290 293 297 289 284 282 280 283 281 283 292 294 293 286 283 278 276 285 290 294 294 284 295
298 298 297 298 304 304 303 302 302 301 301 298 294 297 292 284 286 287 286 286 291 288 286 285 287 288 293 285 284 283 281 285 281 281 281 284 285 283 282 275 281 286 289 295 281 284 289
298 298 299 300 301 303 302 302 301 301 300 297 293 296 291 286 284 286 287 286 288 289 285 286 286 286 284 283 284 284 282 283 281 285 285 284 283 283 280 273 276 288 288 287 289 286 287
299 300 299 300 301 302 302 301 300 300 299 298 290 296 295 287 286 289 288 289 288 287 287 287 287 286 289 286 285 285 283 279 279 281 288 281 286 284 284 282 289 291 289 289 291 289 290
Wind_Speed
24 33 36 34 31 30 27 26 27 27 26 23 21 20 17 16 15 14 14 14 16 17 16 15 14 15 11 8 9 6 4 16 12 11 11 9 11 6 6 7 4 12 12 2 5 4 6
32 27 38 35 33 31 29 28 26 27 26 23 21 18 17 16 15 16 15 15 15 18 16 16 16 18 9 16 5 5 10 12 13 14 12 11 9 9 6 6 9 5 13 5 7 8 3
34 30 18 36 34 32 30 28 27 27 26 25 22 19 17 16 15 14 15 15 16 15 15 14 16 12 12 15 7 9 10 12 13 14 11 10 12 7 3 7 7 12 6 11 7 6 5
33 30 28 30 37 34 31 29 28 28 27 26 23 20 18 16 14 13 15 16 16 13 16 15 15 8 7 7 7 11 10 11 13 11 9 6 6 4 2 9 4 5 7 10 10 9 8
31 31 32 29 38 35 32 29 29 28 28 27 25 21 19 17 14 13 15 16 16 14 13 13 8 7 7 5 11 15 13 13 14 8 7 3 1 3 1 4 5 7 6 12 8 10 4
33 31 27 27 32 37 33 31 30 29 28 28 25 23 21 18 16 15 18 20 18 16 10 8 4 6 6 12 10 9 13 13 10 12 6 5 4 7 5 9 15 7 9 8 14 8 10
33 33 30 30 21 38 35 31 30 30 29 28 26 25 22 19 17 17 18 10 9 7 10 10 9 4 7 7 11 9 11 14 12 13 10 10 7 17 16 12 10 11 8 15 6 8 8
33 32 32 27 28 37 35 31 30 31 30 29 27 25 22 20 18 20 16 11 17 5 7 12 8 15 3 7 11 15 19 11 10 15 16 8 19 17 13 14 12 11 8 11 8 5 1
33 31 31 28 29 33 34 32 31 31 31 30 28 26 23 20 20 17 17 17 12 5 5 14 17 12 5 8 6 17 20 15 10 21 22 16 14 17 17 15 16 16 10 6 7 4 2
30 30 28 30 31 36 34 31 31 31 31 29 28 25 23 23 14 12 15 16 12 3 2 7 13 10 13 6 10 10 18 15 8 11 24 17 13 22 17 19 14 17 9 6 5 4 4
26 29 25 21 42 35 32 30 31 32 31 29 27 27 27 24 10 14 12 12 7 3 6 10 13 6 17 13 9 13 15 13 14 19 11 14 25 25 24 20 17 4 13 11 5 2 2
27 27 27 26 29 30 30 30 32 32 31 29 29 28 28 15 6 14 15 13 5 5 9 5 10 16 17 17 8 7 15 14 3 10 26 15 6 17 18 16 12 8 7 8 5 0 7
37 38 29 33 29 28 29 30 33 32 31 30 30 29 22 9 11 15 17 10 8 11 4 6 7 14 23 17 19 10 22 23 15 9 11 7 14 14 23 18 9 9 10 3 5 6 11
32 35 32 31 29 29 28 30 33 32 31 31 30 28 14 6 11 18 10 9 6 7 6 4 3 6 21 18 22 21 6 22 21 14 10 10 12 17 12 19 10 21 18 6 9 6 6
30 29 27 25 26 28 29 30 32 32 32 32 31 9 8 10 14 11 11 12 9 5 8 9 9 1 17 19 5 20 20 5 17 23 11 14 5 9 13 17 15 10 14 5 4 1 3
22 22 22 24 27 26 28 30 32 33 34 34 9 9 7 9 10 11 9 8 6 3 4 3 7 10 7 22 15 25 23 19 5 19 12 10 6 4 1 8 6 10 8 4 2 6 5
17 17 19 21 23 25 28 30 33 34 37 24 11 7 7 9 7 4 7 7 3 3 7 6 5 3 9 8 21 15 12 10 31 16 19 13 6 4 5 7 15 7 13 6 5 4 4
16 19 22 22 23 23 27 28 37 34 34 18 4 6 6 8 7 2 10 15 8 11 7 5 5 4 4 5 12 22 23 27 30 34 30 12 6 9 10 5 2 8 12 8 6 5 2
13 15 16 22 22 22 31 34 38 35 24 10 6 5 6 6 8 7 5 16 14 10 11 9 6 11 2 3 7 23 23 17 33 29 24 12 6 9 6 3 2 8 12 18 7 3 7
13 13 19 22 26 22 40 37 36 33 20 7 6 6 3 4 4 10 10 9 17 10 5 5 2 5 3 9 11 15 21 13 31 23 20 15 6 11 19 23 12 13 18 18 16 5 5
10 4 25 27 29 29 29 37 37 25 17 4 3 3 4 11 13 9 15 9 17 11 11 12 5 13 8 8 13 21 17 9 24 21 17 9 6 9 1 16 14 22 23 20 19 24 10
12 19 28 26 30 34 36 35 31 19 7 5 5 5 2 5 9 15 12 15 18 19 11 10 13 10 14 14 15 14 17 14 13 11 17 5 3 6 4 14 19 19 20 20 20 27 24
14 12 27 31 31 32 32 30 23 16 4 5 2 2 7 10 14 14 15 11 16 16 12 11 12 13 17 23 17 20 31 16 16 16 15 14 7 8 4 8 10 9 24 27 26 18 30
24 13 35 33 31 30 27 25 21 14 7 4 3 4 4 5 12 15 13 16 14 18 12 8 15 16 3 5 7 5 4 6 23 21 14 14 9 3 6 8 6 8 20 26 31 24 26
28 25 19 26 28 26 25 23 19 13 6 3 2 1 3 4 8 9 17 11 18 9 14 8 7 2 0 6 2 4 1 3 4 14 17 10 7 6 6 8 4 2 6 29 23 23 20
29 26 22 14 23 26 24 21 16 11 6 4 4 3 3 6 7 4 6 12 9 8 1 3 3 3 5 4 5 5 5 6 7 4 3 12 4 5 4 6 11 3 10 11 7 16 16
24 23 19 9 30 27 24 21 18 15 11 6 3 4 3 4 3 1 3 6 4 4 2 1 1 3 7 3 5 3 3 3 9 13 11 7 4 9 8 4 7 5 7 13 11 9 6
24 17 15 16 20 23 23 19 17 16 10 3 4 4 2 3 3 3 2 2 2 4 4 3 3 3 3 6 3 3 3 4 5 9 14 11 10 7 4 3 8 7 4 12 4 2 0
23 21 17 18 19 21 21 18 15 14 9 5 4 2 4 5 4 2 2 1 1 1 0 3 3 3 4 4 2 3 2 2 6 8 7 4 6 9 8 6 2 15 5 2 4 4 2
Wind_Direction
266 234 223 217 217 215 212 202 209 206 207 206 202 204 205 208 210 221 223 206 203 186 184 185 176 152 152 211 231 94 151 166 173 191 195 192 209 166 173 196 221 274 273 193 126 188 96
268 259 222 214 212 211 210 202 203 203 203 205 204 206 207 201 204 213 222 204 193 187 178 186 173 156 181 228 211 197 124 164 194 193 200 195 231 198 211 208 161 276 229 207 168 203 127
263 255 284 215 211 206 207 201 197 199 200 200 201 206 205 200 201 210 218 203 189 177 174 182 179 165 214 214 210 211 153 178 206 193 193 214 231 235 308 225 202 206 266 266 189 240 197
267 261 256 272 207 205 202 201 196 193 193 196 197 201 199 202 204 211 206 196 174 162 180 178 178 174 230 213 256 179 179 171 192 202 222 212 245 317 351 325 168 196 223 239 191 205 227
252 260 242 235 209 203 197 196 197 191 189 190 194 193 192 196 202 206 196 181 163 168 158 171 164 197 237 136 212 203 184 164 174 189 200 295 159 194 43 241 188 193 208 224 224 186 139
249 249 247 240 271 200 197 192 193 190 188 185 189 186 187 189 195 197 187 172 159 144 141 108 102 151 206 204 172 216 186 167 151 163 128 167 182 194 211 216 204 181 215 219 216 215 201
243 242 242 231 237 200 191 188 187 188 185 182 183 182 181 185 187 194 178 138 150 191 202 190 162 267 114 145 160 189 211 167 167 162 170 191 183 208 201 223 247 228 212 218 206 226 185
230 237 234 225 214 195 185 183 184 186 181 178 176 177 178 180 181 185 159 180 183 127 166 228 216 202 152 187 173 208 186 173 188 186 177 174 217 203 213 208 242 250 229 216 234 54 236
225 227 232 210 219 205 178 179 182 183 177 173 172 173 175 173 171 175 182 179 173 141 180 192 216 212 174 166 200 194 193 192 199 197 194 196 212 193 207 223 204 230 213 217 233 122 316
221 223 226 212 238 183 174 176 177 176 171 168 166 167 167 158 158 172 186 175 184 115 174 210 187 221 190 157 219 170 210 181 197 232 194 217 188 185 201 222 197 215 181 216 115 133 224
221 215 197 243 164 164 167 170 173 171 167 162 162 162 163 163 146 175 166 160 106 172 199 190 167 179 168 183 117 202 176 215 191 198 217 196 183 188 199 203 196 257 194 205 165 175 55
214 213 184 191 159 159 163 166 167 165 161 158 158 159 159 180 156 164 148 144 159 142 225 150 134 176 165 194 196 128 186 222 250 223 204 211 186 185 197 196 182 137 86 60 63 326 241
237 208 198 161 160 158 159 162 162 160 155 156 155 158 159 167 167 158 137 146 163 201 185 176 177 178 181 183 183 180 188 195 192 201 190 173 199 179 177 184 140 145 152 144 198 216 248
121 131 139 150 155 156 157 160 158 156 152 153 153 148 148 145 137 132 152 149 195 197 179 99 92 217 199 177 207 197 232 198 196 180 177 179 188 162 176 186 169 182 176 157 198 203 208
134 136 144 146 152 155 158 160 158 154 150 146 141 138 135 153 141 144 149 179 199 171 186 155 121 28 208 202 163 194 196 220 194 177 186 172 149 185 181 153 155 173 203 194 100 122 61
118 131 140 150 156 154 157 160 155 151 145 143 134 127 124 147 142 159 155 187 204 182 56 137 187 183 231 195 182 194 187 199 233 213 184 172 116 234 85 126 183 183 139 171 262 159 225
123 138 149 150 154 157 160 160 154 147 143 134 126 101 156 135 124 145 189 205 161 184 133 140 180 291 223 242 201 196 199 195 198 214 233 147 128 205 163 194 163 177 183 210 172 199 183
127 145 154 156 158 158 157 170 153 152 137 127 93 106 162 150 127 169 203 201 211 165 163 126 156 147 246 212 239 199 207 197 186 188 214 175 158 155 189 0 308 204 181 197 187 210 195
132 137 153 152 153 164 148 149 140 142 143 128 92 92 158 170 169 195 205 207 218 213 202 173 205 194 215 244 281 207 209 223 186 182 173 183 157 129 119 142 344 194 195 202 203 85 202
121 150 168 162 154 146 150 149 149 147 139 110 104 119 116 212 262 182 184 212 207 211 191 194 253 191 211 267 279 280 213 192 190 193 149 202 157 183 195 196 142 192 193 200 198 190 191
119 131 139 150 146 135 144 148 149 151 161 117 69 144 164 178 205 208 181 196 200 199 200 181 202 213 202 253 283 279 223 168 190 186 157 220 147 174 305 165 172 190 182 191 200 225 196
108 152 156 150 150 152 158 152 152 141 158 75 115 131 134 154 173 205 206 205 210 202 168 206 224 202 198 220 224 291 189 180 184 153 163 179 156 104 329 168 174 183 194 195 207 221 223
90 155 164 153 146 150 152 153 144 143 136 86 60 13 130 143 183 188 215 210 214 207 197 214 200 226 216 228 232 248 254 174 161 172 164 174 136 145 176 135 123 178 196 195 214 213 218
73 115 155 149 155 151 151 154 149 151 44 101 175 140 120 155 177 206 195 219 232 213 206 215 223 233 211 186 213 284 155 19 161 177 170 163 125 83 141 113 201 225 190 205 211 216 226
76 63 157 147 147 143 145 149 146 136 88 71 106 94 128 129 177 193 215 217 224 230 214 220 203 242 196 82 206 144 118 104 154 177 175 183 137 110 154 187 236 235 204 195 189 233 222
83 73 62 146 155 142 134 132 130 119 113 80 48 327 92 124 198 152 193 219 203 206 231 240 246 259 197 174 244 183 179 128 143 88 40 161 159 113 164 159 207 212 183 161 143 264 209
85 87 84 53 148 136 129 126 126 131 131 107 107 2 82 112 161 146 164 213 158 148 170 118 214 208 166 205 228 158 123 141 150 151 161 149 148 178 183 191 276 176 153 126 149 241 212
104 91 91 107 97 118 119 118 115 113 116 106 90 14 91 110 130 188 147 194 179 170 170 166 162 199 120 227 218 131 133 213 108 146 165 159 154 176 168 146 260 168 64 165 191 28 120
109 107 102 100 110 109 107 109 106 100 105 110 108 49 33 79 93 116 109 84 191 44 84 206 243 153 170 210 217 122 153 129 161 164 200 163 190 156 178 191 222 176 185 98 100 129 78